Location: Newark
(48.0167°N, 2.6667°E)
Time: 09:50:23
(UTC+00:00)

N. Korean satellite - Visible Passes

Search period start: 20 September 2020 00:00
Search period end: 30 September 2020 00:00
Orbit: 455 x 503 km, 97.2° (Epoch: 19 September)

Date Brightness Start Highest point End Pass type
(mag) Time Alt. Az. Time Alt. Az. Time Alt. Az.
20 Sep 9.9 04:24:29 10° NE 04:26:36 15° E 04:28:43 10° SE visible
22 Sep 8.2 05:04:43 10° NNE 05:08:14 41° E 05:11:40 10° S visible
23 Sep 9.6 04:39:12 10° NE 04:42:04 21° E 04:44:53 10° SE visible
24 Sep 10.2 04:14:42 10° ENE 04:15:49 11° E 04:16:54 10° ESE visible
26 Sep 8.8 04:54:11 10° NNE 04:57:28 31° E 05:00:42 10° SSE visible
27 Sep 9.8 04:28:54 10° NE 04:31:16 16° E 04:33:35 10° SE visible
29 Sep 7.9 05:09:18 10° NNE 05:12:49 46° E 05:16:16 10° S visible
